EW8359 Weather Reports


Display with metric or nautical units.
time (UTC)temp
F
wind
direction
speed
MPH
gust
MPH
rain 1hr
in
rain 24hr
in
rain mn
in
humidity
%
barometer
mb
20260906053019 56 355 0.0 1.0 0.00 0.00 0.00 86 1011.8
20260906051516 56 355 0.0 2.0 0.00 0.00 0.00 86 1011.9
20260906050016 56 355 0.0 1.0 0.00 0.00 0.00 86 1011.9
20260906044512 57 5 0.0 2.0 0.00 0.00 0.00 85 1011.8
20260906043010 57 9 0.0 1.0 0.00 0.00 0.00 84 1011.6
20260906041507 58 27 0.0 2.0 0.00 0.00 0.00 83 1011.7
20260906040005 58 58 0.0 2.0 0.00 0.00 0.00 83 1011.7
20260906034504 59 22 0.0 3.0 0.00 0.00 0.00 82 1011.7
20260906033002 60 36 0.0 3.0 0.00 0.00 0.00 82 1011.4
20260906031502 60 61 1.0 4.0 0.00 0.00 0.00 81 1011.4
20260906030002 60 59 2.0 5.0 0.00 0.00 0.00 82 1011.4
20260906024603 60 26 0.0 3.0 0.00 0.00 0.00 83 1011.4
20260906023058 60 265 0.0 3.0 0.00 0.00 0.00 83 1011.2
20260906021605 60 111 1.0 5.0 0.00 0.00 0.00 83 1011.1
20260906014559 61 59 0.0 3.0 0.00 0.00 0.00 83 1011.0
20260906013157 62 9 0.0 2.0 0.00 0.00 0.00 84 1011.2
20260906011557 62 330 0.0 2.0 0.00 0.00 0.00 83 1011.0
20260906010105 62 329 0.0 1.0 0.00 0.00 0.00 83 1011.1
20260906004557 63 329 0.0 1.0 0.00 0.00 0.00 81 1011.0
20260906003052 63 329 0.0 2.0 0.00 0.00 0.00 83 1010.9
20260906001600 63 329 0.0 3.0 0.00 0.00 0.00 81 1010.7
20260906000050 63 44 0.0 1.0 0.00 0.00 0.00 80 1010.5
20260905234547 63 47 0.0 2.0 0.00 0.00 0.00 80 1010.5
20260905233047 64 75 0.0 2.0 0.00 0.00 0.00 82 1010.3
20260905231546 64 74 0.0 1.0 0.00 0.00 0.00 81 1010.3
20260905230051 65 74 0.0 1.0 0.00 0.00 0.00 77 1010.1
20260905224544 66 74 0.0 1.0 0.00 0.00 0.00 75 1010.2
20260905223043 67 5 2.0 6.0 0.00 0.00 0.00 72 1010.0
20260905221546 67 37 0.0 4.0 0.00 0.00 0.00 75 1009.8
20260905220035 68 53 0.0 2.0 0.00 0.00 0.00 76 1009.7
20260905214533 68 29 1.0 7.0 0.00 0.00 0.00 70 1009.4
20260905213035 68 12 0.0 5.0 0.00 0.00 0.00 74 1009.3
20260905211542 69 94 1.0 7.0 0.00 0.00 0.00 72 1009.2
20260905210031 69 320 1.0 6.0 0.00 0.00 0.00 68 1009.1
20260905204529 70 333 1.0 9.0 0.00 0.00 0.00 68 1009.0
20260905203032 70 227 1.0 6.0 0.00 0.00 0.00 70 1008.9
20260905201534 70 310 2.0 6.0 0.00 0.00 0.00 68 1008.8
20260905200045 70 328 4.0 9.0 0.00 0.00 0.00 66 1008.8
20260905194526 71 355 5.0 11.0 0.00 0.00 0.00 63 1008.8
20260905193025 71 334 3.0 12.0 0.00 0.00 0.00 65 1008.8
20260905191525 70 9 2.0 8.0 0.00 0.00 0.00 67 1008.8
20260905190022 69 330 1.0 6.0 0.00 0.00 0.00 71 1008.7
20260905184621 68 60 3.0 9.0 0.00 0.00 0.00 71 1008.8
20260905183021 69 33 2.0 7.0 0.00 0.00 0.00 72 1008.7
20260905181520 68 42 4.0 9.0 0.00 0.00 0.00 74 1008.8
20260905180020 69 47 1.0 6.0 0.00 0.00 0.00 76 1008.8
20260905174519 67 360 3.0 7.0 0.00 0.06 0.00 78 1008.8
20260905173019 66 29 0.0 8.0 0.00 0.06 0.00 80 1008.8
20260905171534 70 84 7.0 11.0 0.00 0.06 0.00 70 1008.8
20260905170017 68 44 3.0 7.0 0.00 0.06 0.00 77 1008.7
20260905164516 68 91 2.0 9.0 0.00 0.06 0.00 78 1008.8
20260905163018 69 360 3.0 6.0 0.00 0.06 0.00 74 1008.7
20260905161519 69 37 1.0 5.0 0.00 0.06 0.00 74 1008.8
20260905160025 69 63 3.0 8.0 0.00 0.06 0.00 73 1008.7
20260905154507 66 36 1.0 4.0 0.00 0.06 0.00 81 1008.9
20260905153008 66 360 2.0 5.0 0.00 0.06 0.00 81 1008.9
20260905151505 67 51 2.0 6.0 0.00 0.06 0.00 78 1008.9
20260905150002 65 332 4.0 7.0 0.00 0.06 0.00 81 1008.9
20260905144600 64 13 1.0 5.0 0.00 0.06 0.00 85 1008.8
20260905143059 64 27 0.0 4.0 0.00 0.06 0.00 85 1008.8
20260905141557 64 79 2.0 8.0 0.00 0.06 0.00 84 1008.7
20260905140057 65 119 2.0 8.0 0.00 0.06 0.00 83 1008.5
20260905134557 65 79 3.0 9.0 0.00 0.06 0.00 83 1008.3
20260905133051 65 20 0.0 4.0 0.00 0.06 0.00 84 1008.0
20260905131551 65 35 0.0 5.0 0.00 0.06 0.00 84 1007.9
20260905130046 64 355 1.0 4.0 0.00 0.06 0.00 86 1007.8
20260905124549 64 31 2.0 10.0 0.00 0.06 0.00 85 1007.7
20260905123042 64 55 2.0 5.0 0.00 0.06 0.00 86 1007.5
20260905121539 62 41 1.0 4.0 0.00 0.06 0.00 88 1007.5
20260905120037 61 34 1.0 4.0 0.00 0.06 0.00 89 1007.6
20260905114535 60 5 1.0 3.0 0.00 0.06 0.00 90 1007.5
20260905113036 59 18 1.0 3.0 0.00 0.06 0.00 91 1007.4
20260905111532 58 300 0.0 2.0 0.00 0.06 0.00 91 1007.3
20260905110031 57 298 0.0 1.0 0.00 0.06 0.00 91 1007.2
20260905104541 57 298 0.0 0.0 0.00 0.06 0.00 90 1007.1
20260905103032 57 298 0.0 2.0 0.00 0.06 0.00 90 1007.0
20260905101526 56 298 0.0 0.0 0.00 0.06 0.00 90 1006.9
20260905100024 56 298 0.0 0.0 0.00 0.06 0.00 90 1006.6
20260905094523 56 298 0.0 0.0 0.00 0.06 0.00 90 1006.3
20260905093020 56 298 0.0 0.0 0.00 0.06 0.00 90 1006.3
20260905091518 57 298 0.0 0.0 0.00 0.06 0.00 90 1006.1
20260905090021 57 298 0.0 1.0 0.00 0.06 0.00 89 1006.1
20260905084522 58 259 0.0 2.0 0.00 0.06 0.00 89 1006.1
20260905083016 58 259 0.0 1.0 0.00 0.06 0.00 88 1005.9
20260905081511 58 259 0.0 0.0 0.00 0.06 0.00 89 1006.0
20260905080018 59 259 0.0 1.0 0.00 0.06 0.00 89 1006.0
20260905074508 59 259 0.0 1.0 0.00 0.06 0.00 89 1006.0
20260905073019 59 259 0.0 2.0 0.00 0.06 0.00 89 1006.0
20260905071505 59 260 0.0 1.0 0.00 0.06 0.00 88 1005.9
20260905070004 59 260 0.0 1.0 0.00 0.06 0.00 89 1006.1
20260905064504 59 260 0.0 1.0 0.00 0.06 0.00 88 1006.1
20260905063002 59 260 0.0 1.0 0.00 0.06 0.00 88 1006.2
20260905061502 60 260 0.0 1.0 0.00 0.06 0.00 88 1006.2
20260905060001 60 259 0.0 1.0 0.00 0.06 0.00 88 1006.1
20260905054600 60 260 0.0 2.0 0.00 0.06 0.00 89 1006.1